RH
8 8 6 5 6 10 11 9 10 9 9 9 7 7 8 7 8 8 12 15 15 21 19 18 16 14 20 22 24 26 29 33 37 40 46 51 48 44 43 47 48 49 50 50 48 43 42 41 41 41 40 41 41 40 40 41 41 41 40 40 39 40 41 44 50 51 50 48 46 43 38 37 38 39 36 32 30 31 30 31 36 39 38 36 37 31 25 22 19 20 21 22 24 24 24 25 26
7 7 6 5 8 11 11 8 9 9 7 8 7 7 8 7 8 8 15 21 20 25 23 21 20 19 23 25 25 27 32 34 36 39 43 46 45 44 45 47 47 47 49 49 47 43 42 41 41 41 40 41 41 40 39 41 41 41 40 39 38 39 41 45 53 55 52 47 44 42 37 35 36 35 34 31 29 32 33 35 36 36 37 34 33 31 28 27 25 21 20 22 24 25 25 25 26
6 7 5 6 9 10 10 8 8 9 7 7 6 6 7 7 9 8 15 23 22 23 24 23 23 23 24 27 28 31 36 37 37 40 43 44 45 45 43 45 45 46 47 48 46 43 43 41 41 41 40 40 40 40 39 39 40 39 39 38 38 39 40 43 50 54 50 46 43 41 38 36 36 35 34 32 29 30 34 38 38 37 39 36 33 29 27 28 27 26 22 21 24 26 25 25 27
6 6 7 8 8 9 10 9 7 8 8 6 5 7 6 7 9 9 10 18 20 21 25 25 26 29 30 32 33 33 35 36 38 41 43 43 44 46 44 44 44 45 45 45 43 41 42 41 40 40 40 40 39 39 37 38 38 38 38 38 39 39 38 39 45 50 49 47 46 45 43 42 40 39 37 34 31 30 35 38 39 41 42 40 38 35 32 27 24 27 25 21 22 25 26 25 27
6 6 6 9 9 9 10 10 7 7 7 6 6 7 6 7 9 9 9 13 17 21 25 26 29 32 33 35 33 35 37 37 39 39 41 42 42 44 42 41 40 40 41 41 40 39 39 40 41 41 41 41 40 39 37 37 38 38 39 41 43 42 40 40 45 51 52 50 51 53 54 53 50 47 43 39 35 34 36 38 40 42 43 43 42 40 38 32 25 27 28 26 23 24 26 25 27
6 7 6 8 10 9 9 9 8 7 6 5 7 7 7 7 8 8 8 9 13 19 24 27 31 33 34 37 36 38 41 39 39 39 41 41 40 40 39 38 37 36 36 38 39 37 36 39 42 43 43 43 42 40 37 37 39 40 43 47 49 47 45 45 47 52 56 56 58 61 62 61 60 56 50 46 42 37 35 35 40 41 43 45 43 41 40 35 29 28 30 31 26 23 26 27 27
8 8 6 7 8 7 8 8 7 6 6 6 7 8 7 7 8 7 8 8 10 17 23 27 29 33 37 39 38 42 43 40 38 39 40 39 38 38 38 38 37 37 36 35 37 37 35 38 42 44 45 45 43 42 39 39 40 44 50 54 56 55 52 50 50 54 60 61 63 64 64 64 65 62 54 53 48 37 34 33 37 41 41 43 41 40 38 35 31 29 31 34 31 24 24 28 29
8 8 6 7 8 7 8 8 7 7 7 6 6 7 7 8 7 6 8 8 11 17 24 28 27 36 44 40 40 44 44 42 38 39 39 38 38 37 37 37 37 36 35 35 37 39 36 37 41 44 46 46 45 43 43 43 43 49 58 62 65 64 58 56 56 59 62 65 66 64 65 66 68 66 56 54 49 39 38 35 35 39 40 39 39 39 36 35 32 31 33 35 33 27 23 26 29
8 8 7 8 10 8 7 8 7 7 7 6 6 7 8 8 7 6 7 9 11 17 23 28 30 40 49 44 44 45 44 42 38 39 38 38 38 38 37 37 38 36 37 39 39 41 38 38 42 44 46 47 46 46 48 52 52 53 59 67 69 69 65 63 62 65 65 66 66 62 66 69 69 66 56 51 45 43 46 43 39 37 36 35 35 37 35 34 33 32 34 36 33 29 24 23 27
8 8 7 8 10 8 7 7 7 7 6 6 7 8 8 8 7 7 7 10 12 16 25 31 33 39 44 43 45 45 44 42 39 39 38 38 39 38 38 37 39 38 39 43 43 43 42 41 44 46 47 48 49 51 54 59 63 60 58 63 68 71 72 70 68 68 66 66 66 62 65 69 69 65 59 53 47 47 49 49 47 43 38 34 31 33 33 33 32 30 32 34 33 31 26 23 26
8 7 7 9 9 8 7 7 7 7 6 6 8 9 9 9 9 8 8 11 12 18 29 33 34 33 36 39 43 46 44 41 39 40 38 39 38 38 39 39 41 40 41 45 44 46 47 47 49 50 51 54 56 59 59 57 61 60 61 63 65 70 72 74 74 70 65 65 67 64 66 70 71 68 62 57 53 50 48 50 50 47 45 39 34 33 33 33 32 28 28 31 33 33 29 25 26
10 8 7 8 8 8 7 8 7 7 6 7 9 9 10 10 11 10 8 10 11 18 28 33 36 31 33 38 42 46 44 41 39 39 39 39 38 38 40 40 42 41 42 46 47 48 50 51 53 54 56 61 64 63 58 53 56 58 63 67 70 75 75 77 77 69 62 65 71 67 65 70 73 69 62 58 52 49 51 55 54 50 47 42 39 37 35 33 31 29 27 29 31 33 31 29 29
11 10 7 8 8 8 8 8 7 7 7 9 9 9 11 12 15 13 8 9 12 18 24 32 34 30 36 40 42 45 44 42 40 39 39 39 38 38 39 40 40 41 44 49 52 52 48 50 55 57 60 62 61 58 54 54 64 65 64 71 78 81 81 79 74 67 64 69 76 70 65 68 71 67 62 56 50 51 57 59 56 51 47 44 43 40 36 32 31 31 29 28 29 30 31 31 31
10 11 9 8 8 8 7 7 7 7 8 11 10 9 12 14 17 15 10 9 16 23 26 31 30 30 38 39 40 44 44 43 40 40 38 38 39 37 38 40 39 42 48 51 53 52 50 55 59 58 58 57 55 56 57 62 71 68 66 77 81 83 85 79 70 71 75 77 77 72 68 69 68 65 62 58 55 58 60 58 54 50 46 44 41 38 35 33 33 35 34 32 31 30 31 33 33
10 10 9 9 9 8 7 8 8 8 11 13 10 10 11 15 18 15 14 17 23 27 28 32 32 33 39 37 38 41 42 42 39 39 37 37 38 37 39 40 40 44 50 51 50 50 55 61 59 56 56 58 61 62 65 67 71 70 71 76 76 82 86 76 71 77 80 77 73 71 71 70 67 66 65 63 62 61 57 54 50 46 43 41 39 37 36 36 37 37 38 39 37 35 33 33 35
10 9 9 10 9 9 8 9 8 9 12 13 10 11 11 16 21 19 21 22 24 28 28 34 36 36 39 38 37 39 40 39 37 38 37 37 37 36 39 40 42 45 49 50 50 53 59 60 54 55 55 56 61 64 67 68 72 77 75 76 79 83 81 76 76 79 77 75 73 72 71 69 69 70 69 66 61 57 53 50 46 43 42 41 40 39 40 42 42 41 41 43 43 40 36 34 35
10 9 11 11 9 9 9 9 9 10 13 12 10 11 11 16 23 26 27 25 24 28 30 35 37 36 38 36 35 36 36 37 37 38 37 37 38 37 38 40 43 45 49 50 54 57 58 55 52 54 53 54 61 61 65 70 74 79 76 76 82 82 79 80 80 78 76 76 77 75 72 71 70 70 68 64 58 54 50 47 47 45 44 43 42 44 46 49 49 48 47 47 46 45 39 35 34
10 10 12 11 10 10 9 9 10 12 14 13 11 11 13 15 21 26 28 28 28 29 31 34 36 36 38 36 36 36 33 36 38 37 38 38 38 38 38 40 45 48 51 52 53 53 53 53 52 54 54 55 58 58 61 68 74 78 77 79 82 82 80 79 78 77 77 79 80 77 72 69 68 66 65 61 59 57 54 51 51 49 47 46 46 47 50 52 53 53 51 49 48 47 44 41 39
10 11 13 11 11 10 9 9 9 11 13 12 12 12 13 14 18 25 29 29 26 25 27 31 33 33 36 35 36 38 35 37 38 38 39 39 40 40 40 42 47 49 51 54 52 49 50 54 53 54 55 53 54 57 61 66 74 75 74 79 82 81 80 78 77 77 77 77 77 74 68 64 64 65 66 63 61 61 58 56 54 52 51 50 49 50 51 53 53 53 52 50 50 50 51 49 48
11 12 13 11 11 11 9 9 9 10 12 12 12 12 12 13 16 21 28 31 29 26 24 26 29 30 34 34 36 38 38 38 38 39 40 41 42 42 43 44 47 50 52 54 52 48 49 52 51 53 53 53 57 60 61 63 69 72 72 76 78 76 75 74 75 74 73 71 70 69 65 63 63 64 67 66 63 63 60 57 56 55 54 53 51 52 54 54 53 53 53 51 52 55 59 55 51
12 12 12 12 11 11 9 9 9 10 11 13 13 12 13 13 14 16 21 27 31 33 28 26 29 30 33 34 35 37 38 38 39 40 41 42 45 45 45 47 51 54 52 51 50 49 51 52 50 51 52 54 60 63 60 59 62 64 68 77 77 74 73 72 74 74 72 70 66 66 65 64 62 64 70 68 65 66 63 60 60 59 59 58 55 56 60 57 57 60 57 56 57 58 60 58 53
13 11 11 13 12 11 11 10 9 10 11 12 13 14 13 13 14 14 17 21 24 29 28 26 27 29 32 33 35 37 39 40 41 43 43 44 45 44 45 50 59 59 52 54 54 52 54 55 52 53 56 57 60 61 59 59 61 58 63 77 78 75 75 75 76 75 72 68 63 66 67 65 62 68 75 71 70 70 65 63 64 64 63 61 59 62 65 60 61 65 63 63 60 57 58 55 51
13 12 11 12 10 10 11 10 10 10 10 12 13 14 13 13 14 13 15 18 18 20 22 23 24 26 30 34 37 37 39 42 43 44 44 44 43 42 42 46 60 64 61 63 59 54 56 59 57 58 59 55 56 59 60 60 62 60 63 75 79 77 79 78 75 73 69 65 65 68 69 66 67 74 75 68 67 68 65 63 63 61 60 60 58 61 63 60 62 65 65 66 64 63 62 58 56
12 13 13 12 10 10 10 10 10 10 10 11 13 13 14 13 14 14 13 14 16 17 16 19 23 27 32 36 37 37 39 42 44 44 42 42 42 43 44 45 57 66 66 64 58 55 58 60 61 60 56 53 56 59 60 60 62 63 66 75 79 79 79 76 73 71 68 67 67 70 68 65 69 73 70 65 62 60 60 59 57 56 56 58 56 56 59 60 61 64 66 69 71 72 70 65 65
11 13 15 13 11 10 10 10 10 10 10 11 12 13 14 13 14 14 13 15 18 18 17 20 24 30 34 36 37 37 39 41 42 43 42 43 43 44 46 47 52 59 60 62 60 59 61 62 64 61 57 57 60 60 60 62 63 65 69 75 78 77 75 72 72 74 71 68 66 66 65 63 62 63 63 64 59 55 54 53 53 52 52 54 54 55 58 61 62 64 68 72 75 77 74 71 70
12 12 15 14 12 11 11 10 10 10 11 11 11 12 14 14 14 13 14 18 19 19 21 24 27 31 35 35 37 38 41 42 41 43 43 43 44 44 45 47 52 58 61 65 65 64 64 63 65 61 59 63 63 62 62 63 65 67 70 74 75 73 70 68 70 72 69 65 64 62 61 60 58 56 58 58 56 53 51 50 50 49 50 52 54 55 57 62 66 67 72 76 79 79 78 75 73
12 12 14 13 12 12 11 10 11 11 11 11 11 12 13 13 14 13 15 20 19 21 25 26 28 31 33 32 34 38 40 42 42 44 44 45 46 47 47 51 58 64 68 69 66 65 65 64 64 59 63 70 67 65 64 63 65 65 67 70 70 69 67 65 65 66 65 63 63 59 56 55 54 53 54 54 53 51 50 49 50 49 51 54 56 57 58 63 68 72 74 77 79 78 78 76 74
12 12 12 12 12 12 11 11 11 11 11 12 12 12 12 13 13 14 20 23 21 22 25 26 28 30 32 31 33 37 38 41 43 43 46 48 49 49 49 53 59 65 71 69 63 62 63 64 65 61 66 74 69 69 68 65 66 64 65 68 67 65 63 62 62 63 62 62 61 57 53 51 51 50 50 51 52 49 46 49 51 50 52 56 59 60 62 66 70 73 72 73 75 74 76 76 75
11 11 12 12 12 12 12 12 12 12 12 12 12 12 11 12 11 15 22 25 24 24 25 26 28 30 31 31 32 37 39 40 42 43 47 49 50 50 49 51 53 59 63 63 62 62 62 66 67 63 66 71 70 72 70 68 68 64 63 66 64 62 60 59 59 58 58 58 56 53 51 50 50 50 49 51 51 47 45 48 51 52 54 58 61 62 65 68 71 72 71 72 74 74 76 77 76
11 11 12 12 12 13 11 12 12 11 13 12 12 13 12 12 11 15 20 23 23 25 25 27 28 29 30 31 33 38 40 40 42 44 46 47 50 50 48 49 50 52 58 63 67 65 64 69 70 65 64 68 69 70 68 67 66 62 61 61 59 59 57 55 52 49 49 49 49 49 49 49 50 51 51 51 51 47 46 47 48 51 54 57 61 63 65 68 71 72 72 73 76 77 78 77 76
11 11 11 12 13 14 12 13 12 12 13 12 12 13 13 13 13 17 21 22 22 22 24 27 28 29 29 31 35 40 40 41 44 45 45 48 51 49 47 50 52 54 60 67 69 67 67 71 70 67 66 68 68 67 67 65 63 66 65 60 59 57 51 48 47 46 46 46 45 45 45 46 48 49 49 49 49 50 49 49 51 52 52 54 59 63 66 69 71 73 71 72 77 80 80 80 78
11 12 12 12 12 14 14 13 12 13 14 13 12 13 13 14 15 19 22 23 21 20 24 27 27 29 29 32 38 41 41 43 46 46 47 49 49 49 52 57 60 60 62 67 69 70 72 71 67 66 68 70 70 69 68 63 62 67 66 61 58 53 48 48 47 45 44 45 45 43 40 42 44 45 46 45 47 49 48 49 52 52 51 53 57 61 65 68 71 73 73 71 74 77 79 78 76
12 12 14 15 12 13 15 15 14 14 15 14 13 13 14 15 15 19 23 23 23 21 23 27 28 29 29 33 39 41 44 47 48 47 48 50 48 48 53 60 64 61 59 63 67 72 74 69 65 68 70 70 70 70 67 62 62 64 61 57 54 50 49 49 45 43 41 41 41 39 37 38 37 37 40 42 45 46 46 49 51 51 52 53 55 58 61 65 69 72 72 70 68 69 72 73 71
15 12 15 18 14 13 16 17 15 14 15 15 15 14 15 16 16 19 22 23 23 21 23 27 28 30 30 33 39 42 48 49 48 47 48 50 49 46 48 55 60 58 57 60 61 66 71 67 64 69 72 71 70 70 67 63 63 63 58 55 52 50 47 44 43 44 44 42 38 34 32 31 31 32 34 36 41 44 46 51 53 52 52 52 53 56 59 61 63 66 66 64 62 62 64 65 65
18 16 16 18 15 15 18 21 20 16 16 17 16 15 15 16 16 19 23 23 23 22 25 28 27 29 30 33 38 44 49 49 48 48 47 47 47 45 46 50 55 55 55 58 59 62 65 62 63 69 74 74 70 69 66 61 62 62 59 57 53 48 44 41 43 42 40 40 36 29 27 27 28 30 32 32 36 41 44 47 49 48 49 50 52 55 58 57 56 58 59 58 58 57 57 57 58
19 18 18 19 18 16 18 23 22 18 18 19 17 16 15 16 17 20 23 23 23 24 27 28 27 28 29 33 39 44 48 47 48 48 46 45 45 45 47 49 53 56 54 56 59 62 62 62 68 75 76 74 69 66 63 59 62 64 61 56 49 45 43 42 40 38 36 34 30 26 26 26 26 27 29 30 32 36 39 41 42 43 44 46 50 53 54 54 54 54 54 54 55 54 54 54 53
18 17 18 19 19 18 20 21 20 19 20 20 17 16 16 17 19 22 25 25 23 24 27 26 25 26 28 33 40 45 47 46 47 47 45 45 43 45 47 48 52 55 55 56 60 63 63 66 74 77 75 73 71 67 61 59 65 67 58 49 44 43 42 39 36 34 34 32 28 26 25 23 23 23 26 29 30 33 35 36 37 38 40 40 43 46 47 49 50 50 50 50 51 51 51 51 50
16 16 18 19 18 20 22 21 20 20 20 21 18 16 18 19 20 23 26 26 23 24 25 25 25 25 27 34 41 46 46 45 47 46 44 44 44 45 48 49 52 56 56 57 61 63 64 68 72 70 69 71 71 66 60 60 63 63 54 45 44 46 46 45 41 36 33 29 27 28 25 22 21 21 22 24 27 29 30 33 35 33 33 34 36 39 40 42 44 47 48 48 48 48 48 48 47
16 17 21 21 18 20 22 21 21 21 22 23 18 16 20 20 21 24 24 24 25 27 27 26 27 27 30 36 42 47 46 45 47 47 46 45 46 48 50 50 52 57 58 59 61 62 64 70 70 68 67 66 65 62 61 60 57 55 51 45 46 49 49 46 41 37 35 32 27 29 29 25 24 23 22 21 21 22 24 27 29 26 25 25 27 30 32 34 37 40 43 45 46 46 45 45 44
17 20 22 21 18 19 23 24 23 22 23 22 17 19 22 21 21 23 25 27 30 32 30 28 30 30 34 39 42 46 47 46 48 48 47 46 47 50 51 52 55 59 60 59 62 62 63 67 67 65 66 66 65 65 65 62 56 53 50 46 45 44 42 40 38 37 38 36 32 31 29 27 27 27 25 25 22 21 23 24 24 23 22 22 23 24 25 28 31 33 36 39 41 43 43 42 42
18 22 22 22 21 20 26 28 24 23 23 20 18 20 21 21 23 25 26 31 34 33 31 30 31 35 39 41 43 46 47 47 48 48 49 49 48 52 54 56 59 61 61 61 63 63 63 64 65 65 69 69 65 68 68 61 55 52 50 48 45 41 40 41 43 41 40 39 34 29 26 26 28 27 27 29 26 24 24 24 24 25 23 23 24 24 22 24 27 30 32 32 34 37 39 37 37
23 22 21 23 24 22 26 26 24 25 25 21 20 23 23 22 27 31 29 31 34 33 33 33 35 39 41 41 44 47 47 46 46 47 50 52 53 58 63 63 65 64 64 65 65 63 63 65 66 69 73 71 65 67 65 55 52 52 50 50 47 45 47 47 46 44 42 39 33 27 25 26 28 27 29 31 28 26 25 22 25 28 27 23 25 25 24 26 28 30 31 30 30 30 33 37 37
28 24 21 23 24 24 26 24 23 28 31 26 22 26 31 28 29 34 31 31 34 35 36 37 39 42 42 44 47 47 46 46 47 48 52 59 63 66 69 70 69 66 64 67 67 64 61 61 64 69 73 69 65 66 60 51 52 53 53 54 51 49 49 45 41 40 39 35 30 28 26 25 26 26 29 30 28 27 26 24 24 28 29 26 26 28 27 29 30 30 30 30 31 31 32 38 39
31 29 24 23 23 24 26 25 24 28 32 30 23 24 31 33 31 30 29 30 34 35 38 40 40 43 46 50 52 48 47 47 49 53 57 63 68 71 75 76 72 67 64 64 65 63 59 58 64 72 74 72 68 64 57 52 54 56 56 55 51 47 43 37 35 35 36 34 31 33 32 30 29 29 30 30 29 26 24 23 22 24 27 27 28 29 30 31 27 26 28 28 30 32 33 37 39
31 29 25 23 24 24 25 25 26 27 28 29 28 25 27 33 34 30 28 31 34 37 37 38 40 43 47 51 53 50 48 49 51 56 57 58 62 67 74 75 70 67 66 63 63 61 58 57 63 70 72 71 69 62 55 56 58 57 57 52 46 43 39 36 38 38 37 37 34 32 35 36 34 32 32 30 27 23 19 19 18 19 22 26 28 28 28 29 26 25 26 25 25 26 28 34 39
31 27 24 24 24 24 25 26 29 30 26 27 32 30 26 32 36 32 31 33 37 39 36 36 39 42 44 47 50 49 50 52 54 54 53 53 55 56 60 64 62 61 63 65 63 61 57 56 61 65 61 59 64 62 59 60 61 59 55 47 41 39 38 39 41 41 42 43 38 33 37 41 40 35 33 31 27 23 20 19 19 17 18 22 27 27 26 25 23 22 20 17 19 23 24 29 34
29 27 26 26 25 25 24 26 31 33 30 29 33 33 28 32 37 34 34 37 39 38 37 37 38 40 42 43 46 49 50 53 57 56 55 55 54 50 52 57 57 55 60 66 66 62 59 58 61 64 57 59 69 67 62 63 61 60 56 48 43 40 40 42 43 44 47 46 42 40 41 43 40 35 32 32 30 26 23 20 19 19 17 18 22 24 25 23 19 18 16 15 18 20 20 21 22
29 29 27 26 28 27 26 27 30 31 31 34 36 35 29 30 37 39 38 37 37 38 38 40 40 40 43 44 45 49 51 54 59 60 59 61 59 55 56 59 60 58 60 65 67 66 66 64 63 63 61 67 74 66 60 63 61 60 58 50 46 44 43 46 46 47 48 47 44 43 43 40 37 34 33 32 29 26 24 22 20 18 17 17 17 18 20 20 19 18 18 18 18 18 19 21 20
29 29 28 29 32 32 30 31 31 27 29 36 37 34 31 29 36 42 39 37 38 40 41 42 44 44 46 47 47 50 53 55 60 62 63 68 68 67 68 67 68 67 64 64 63 63 67 66 62 62 65 69 69 62 58 60 61 60 59 54 50 49 49 49 49 48 49 49 47 44 44 43 40 39 37 33 30 29 29 26 24 21 18 16 16 15 15 15 18 18 16 15 16 16 16 17 17
30 29 29 31 34 37 35 32 31 29 30 37 36 33 31 30 34 38 38 39 41 42 44 45 47 48 48 48 47 50 50 53 59 61 66 72 72 73 72 66 65 66 66 67 63 59 64 67 63 64 69 70 69 68 62 58 60 62 60 58 56 54 52 53 53 51 50 50 49 47 47 46 44 41 38 35 33 33 32 30 28 26 22 20 18 17 15 14 17 18 14 12 13 13 12 12 12
32 30 29 30 32 36 36 31 30 31 32 37 36 30 28 31 36 36 35 40 41 43 46 47 49 51 51 50 48 49 50 53 58 59 66 73 75 78 75 64 59 57 59 66 66 63 66 71 69 67 70 72 73 75 71 61 60 63 61 60 59 57 57 60 60 54 51 51 49 47 47 47 46 43 39 36 35 34 33 32 31 30 28 27 24 22 19 16 17 17 15 13 13 12 12 11 11
35 31 28 29 30 32 35 34 33 35 36 38 36 31 29 32 35 33 33 38 40 42 46 48 50 51 51 51 50 51 53 55 56 58 61 66 72 79 78 70 63 57 56 63 66 67 69 70 71 70 72 75 75 77 77 68 61 62 63 61 60 59 61 65 63 55 52 50 47 45 45 47 48 45 40 39 40 38 37 35 33 32 32 33 32 30 26 22 19 18 17 17 16 15 15 14 13
38 36 32 29 29 31 34 35 35 34 34 36 36 35 33 30 31 32 32 36 38 41 44 45 48 50 50 51 50 52 55 56 58 60 59 62 69 73 76 77 73 64 63 67 67 69 72 73 74 77 78 78 77 76 78 74 66 63 64 63 61 61 62 64 62 55 51 50 50 48 48 50 50 47 43 43 44 43 41 38 36 35 36 37 36 34 32 29 25 23 22 20 20 19 19 18 17
36 38 36 32 31 31 31 33 35 34 32 33 35 36 35 32 35 36 34 36 39 39 41 43 45 47 47 47 47 49 52 53 56 59 58 61 65 64 66 75 77 71 70 75 76 73 75 78 81 85 82 78 81 80 77 75 69 65 66 65 64 65 64 64 63 58 56 55 54 53 52 54 53 50 48 48 48 47 44 41 39 39 39 40 40 38 35 33 30 28 27 26 25 24 23 23 22
33 35 35 35 37 36 34 34 36 35 33 32 33 33 34 34 38 41 39 39 40 39 41 43 43 43 43 45 47 47 49 50 52 55 55 56 59 59 58 63 72 75 71 76 82 77 76 81 86 91 85 78 82 82 74 72 69 68 71 68 67 69 68 67 67 63 61 57 54 53 53 54 52 51 52 52 50 47 45 43 42 42 43 43 43 42 40 39 37 35 34 34 32 30 30 29 27
33 32 33 35 38 39 40 40 37 36 35 34 35 34 31 31 35 39 40 43 45 45 46 44 43 43 43 47 50 50 51 53 53 54 55 56 60 64 62 59 64 67 63 68 78 76 74 79 86 91 87 82 85 83 75 72 70 71 73 71 71 73 70 68 66 62 58 53 49 49 50 51 51 50 52 53 51 48 47 46 46 46 49 49 49 49 48 49 48 47 46 44 41 40 41 38 34
38 36 34 34 36 36 38 41 39 37 37 38 39 35 32 35 38 38 41 43 44 48 49 45 44 46 48 50 52 52 53 53 53 56 58 59 62 64 63 61 61 59 56 61 72 76 77 80 83 84 84 84 86 83 76 73 70 70 73 73 73 71 67 64 60 55 51 47 44 45 46 47 48 49 52 54 52 51 50 50 50 52 55 55 56 57 58 59 60 59 57 55 53 52 52 49 46
43 42 39 38 38 37 37 38 38 37 37 39 41 37 38 44 42 39 42 41 41 45 48 45 46 47 49 52 53 54 55 54 55 58 57 57 60 60 57 55 53 52 51 55 64 72 75 77 78 78 79 80 81 81 79 76 74 73 72 71 68 65 63 61 57 51 46 41 40 42 42 44 46 49 53 55 54 53 53 53 53 56 58 59 61 63 65 68 68 66 64 64 63 64 63 60 58